Date String (YYYY-MM-DD hh:mm:ss) UTC,Instrument flags,Ambient pressure (hPa),Sample flow (lpm),Bypass flow (lpm),Sample temperature (°C),Ambient temperature (°C),ASC tube jacket temperature (°C),LED temperature (°C),Box temperature (°C),Sample RH (%),Span deviation,Mass concentration (μg/m³),Mass concentration (μg/m³),Mass concentration (μg/m³)
DateTimeUTC,F1_M11,P_M11,Q1_M11,Q2_M11,T1_M11,T2_M11,T3_M11,T4_M11,T5_M11,U1_M11,ZSPAN_M11,X0_M11,X2_M11,X1_M11
2022-07-28 02:00:00,,0827.5,5.00,0.00,30.2,28.4,00.0,38.7,31.7,33.1,0000.0,0014.64,0007.90,0006.98
2022-07-28 02:01:00,,0827.5,5.00,0.00,30.2,28.4,00.0,38.7,31.8,32.9,0000.0,0014.51,0007.91,0006.98
2022-07-28 02:02:00,,0827.5,5.00,0.00,30.2,27.8,00.0,38.6,31.7,32.8,0000.0,0015.10,0007.99,0006.98
2022-07-28 02:03:00,,0827.5,5.01,0.00,30.1,27.3,00.0,38.6,31.6,32.8,0000.0,0016.12,0008.00,0006.98
2022-07-28 02:04:00,,0827.5,5.00,0.00,30.0,27.2,00.0,38.6,31.5,32.8,0000.0,0016.26,0007.99,0006.97
2022-07-28 02:05:00,,0827.5,5.00,0.00,30.0,27.3,00.0,38.6,31.4,32.7,0000.0,0017.05,0007.97,0006.97
2022-07-28 02:06:00,,0827.5,4.99,0.00,29.9,27.4,00.0,38.5,31.4,32.8,0000.0,0016.20,0007.99,0006.98
2022-07-28 02:07:00,,0827.5,5.02,0.00,29.9,27.6,00.0,38.5,31.4,32.9,0000.0,0016.54,0008.03,0006.97
2022-07-28 02:08:00,,0827.6,4.99,0.00,29.9,27.8,00.0,38.5,31.5,32.9,0000.0,0016.48,0008.04,0006.97
2022-07-28 02:09:00,,0827.6,5.01,0.00,29.9,28.0,00.0,38.5,31.5,32.7,0000.0,0016.04,0008.01,0006.96
2022-07-28 02:10:00,,0827.6,4.99,0.00,29.9,28.2,00.0,38.5,31.6,32.6,0000.0,0015.89,0008.00,0006.96
2022-07-28 02:11:00,,0827.6,5.01,0.00,30.0,28.4,00.0,38.6,31.7,32.6,0000.0,0015.94,0008.01,0006.95
2022-07-28 02:12:00,,0827.6,5.00,0.00,30.0,28.4,00.0,38.6,31.7,32.5,0000.0,0015.99,0008.02,0006.96
2022-07-28 02:13:00,,0827.7,5.00,0.00,30.0,27.9,00.0,38.5,31.6,32.3,0000.0,0015.85,0008.01,0006.97
2022-07-28 02:14:00,,0827.7,5.00,0.00,29.9,27.3,00.0,38.5,31.5,32.2,0000.0,0014.99,0008.02,0006.97
2022-07-28 02:15:00,,0827.7,5.00,0.00,29.9,27.1,00.0,38.5,31.4,32.2,0000.0,0014.73,0008.00,0006.97
2022-07-28 02:16:00,,0827.7,5.00,0.00,29.8,27.1,00.0,38.4,31.3,32.4,0000.0,0014.20,0007.99,0006.97
2022-07-28 02:17:00,,0827.7,5.00,0.00,29.7,27.3,00.0,38.4,31.3,32.4,0000.0,0014.31,0007.98,0006.95
2022-07-28 02:18:00,,0827.7,5.00,0.00,29.7,27.5,00.0,38.4,31.3,32.3,0000.0,0014.31,0007.94,0006.94
2022-07-28 02:19:00,,0827.7,5.00,0.00,29.7,27.7,00.0,38.4,31.4,32.2,0000.0,0014.15,0007.85,0006.93
2022-07-28 02:20:00,,0827.8,5.01,0.00,29.7,27.9,00.0,38.4,31.4,32.2,0000.0,0013.75,0007.81,0006.93
2022-07-28 02:21:00,,0827.7,5.00,0.00,29.7,28.1,00.0,38.4,31.5,32.3,0000.0,0014.27,0007.83,0006.94
2022-07-28 02:22:00,,0827.7,5.00,0.00,29.8,28.3,00.0,38.4,31.5,32.3,0000.0,0015.28,0007.83,0006.94
2022-07-28 02:23:00,,0827.7,5.00,0.00,29.8,28.4,00.0,38.4,31.6,32.3,0000.0,0015.53,0007.83,0006.95
2022-07-28 02:24:00,,0827.7,5.01,0.00,29.8,28.3,00.0,38.4,31.6,32.2,0000.0,0015.23,0007.79,0006.94
2022-07-28 02:25:00,,0827.7,5.00,0.00,29.8,27.7,00.0,38.4,31.5,32.3,0000.0,0015.16,0007.76,0006.95
2022-07-28 02:26:00,,0827.8,5.01,0.00,29.7,27.2,00.0,38.3,31.4,32.3,0000.0,0015.08,0007.78,0006.95
2022-07-28 02:27:00,,0827.9,5.00,0.00,29.7,27.1,00.0,38.3,31.3,32.4,0000.0,0015.19,0007.81,0006.96
2022-07-28 02:28:00,,0827.9,4.99,0.00,29.6,27.2,00.0,38.3,31.2,32.6,0000.0,0014.23,0007.85,0006.98
2022-07-28 02:29:00,,0827.9,5.00,0.00,29.6,27.3,00.0,38.3,31.2,32.6,0000.0,0013.94,0007.91,0007.00
2022-07-28 02:30:00,,0827.9,5.02,0.00,29.6,27.5,00.0,38.3,31.3,32.5,0000.0,0014.70,0007.94,0007.01
2022-07-28 02:31:00,,0828.0,5.00,0.00,29.6,27.7,00.0,38.3,31.3,32.5,0000.0,0016.42,0007.97,0007.01
2022-07-28 02:32:00,,0827.9,4.99,0.00,29.6,27.9,00.0,38.3,31.4,32.5,0000.0,0017.12,0007.90,0006.99
2022-07-28 02:33:00,,0828.0,5.00,0.00,29.6,28.1,00.0,38.3,31.4,32.4,0000.0,0016.58,0007.88,0006.98
2022-07-28 02:34:00,,0828.0,5.00,0.00,29.7,28.3,00.0,38.3,31.5,32.4,0000.0,0016.54,0007.86,0006.96
2022-07-28 02:35:00,,0828.1,5.00,0.00,29.7,28.4,00.0,38.4,31.6,32.3,0000.0,0016.79,0007.86,0006.95
2022-07-28 02:36:00,,0828.1,5.00,0.00,29.7,28.4,00.0,38.4,31.6,32.3,0000.0,0016.98,0007.84,0006.94
2022-07-28 02:37:00,,0828.1,5.00,0.00,29.7,27.9,00.0,38.3,31.5,32.5,0000.0,0016.97,0007.81,0006.92
2022-07-28 02:38:00,,0828.1,5.00,0.00,29.7,27.3,00.0,38.3,31.4,32.7,0000.0,0017.46,0007.79,0006.93
2022-07-28 02:39:00,,0828.1,5.00,0.00,29.6,27.1,00.0,38.3,31.3,32.9,0000.0,0017.40,0007.74,0006.90
2022-07-28 02:40:00,,0828.2,5.00,0.00,29.5,27.1,00.0,38.2,31.2,33.2,0000.0,0017.61,0007.68,0006.88
2022-07-28 02:41:00,,0828.2,4.99,0.00,29.5,27.3,00.0,38.2,31.2,33.6,0000.0,0017.40,0007.70,0006.89
2022-07-28 02:42:00,,0828.3,5.00,0.00,29.5,27.5,00.0,38.2,31.2,33.8,0000.0,0015.53,0007.71,0006.90
2022-07-28 02:43:00,,0828.3,5.01,0.00,29.5,27.7,00.0,38.2,31.3,35.5,0000.0,0014.62,0007.77,0006.92
2022-07-28 02:44:00,,0828.3,5.00,0.00,29.7,27.9,00.0,38.2,31.4,37.2,0000.0,0014.88,0007.77,0006.88
2022-07-28 02:45:00,,0828.3,4.99,0.00,30.0,28.0,00.0,38.3,31.7,37.0,0000.0,0016.01,0007.75,0006.84
2022-07-28 02:46:00,,0828.4,5.01,0.00,30.4,28.2,00.0,38.3,31.9,36.5,0000.0,0015.94,0007.75,0006.80
2022-07-28 02:47:00,,0828.4,5.01,0.00,30.9,28.4,00.0,38.4,32.1,36.0,0000.0,0016.20,0007.80,0006.75
2022-07-28 02:48:00,,0828.5,5.00,0.00,31.4,28.5,00.0,38.4,32.2,35.4,0000.0,0016.64,0007.86,0006.71
2022-07-28 02:49:00,,0828.9,4.99,0.00,31.8,28.6,00.0,38.6,32.4,34.6,0000.0,0017.30,0007.86,0006.66
2022-07-28 02:50:00,,0829.2,5.01,0.00,32.1,28.2,00.0,38.7,32.4,34.2,0000.0,0018.55,0007.92,0006.61
2022-07-28 02:51:00,,0829.0,5.00,0.00,32.2,27.5,00.0,38.8,32.2,34.1,0000.0,0018.46,0007.94,0006.56
2022-07-28 02:52:00,,0828.7,5.00,0.00,32.2,27.2,00.0,38.9,32.0,34.3,0000.0,0018.52,0007.95,0006.50
2022-07-28 02:53:00,,0828.9,5.00,0.00,32.1,27.2,00.0,39.0,31.9,34.8,0000.0,0020.00,0008.00,0006.46
2022-07-28 02:54:00,,0828.7,4.99,0.00,32.1,27.3,00.0,39.2,31.9,35.1,0000.0,0021.16,0008.12,0006.45
2022-07-28 02:55:00,,0829.0,5.01,0.00,32.1,27.5,00.0,39.3,32.0,34.9,0000.0,0020.80,0008.15,0006.46
2022-07-28 02:56:00,,0828.8,5.00,0.00,32.3,27.7,00.0,39.3,32.1,34.7,0000.0,0019.79,0008.22,0006.47
2022-07-28 02:57:00,,0829.2,4.99,0.00,32.3,27.9,00.0,39.4,32.1,34.9,0000.0,0021.19,0008.26,0006.49
2022-07-28 02:58:00,,0829.1,5.02,0.00,32.4,28.1,00.0,39.5,32.2,35.2,0000.0,0021.71,0008.24,0006.52
2022-07-28 02:59:00,,0828.9,4.99,0.00,32.5,28.3,00.0,39.6,32.3,34.9,0000.0,0022.37,0008.26,0006.53
